Time,TemperatureF,DewpointF,PressureIn,WindDirection,WindDirectionDegrees,WindSpeedMPH,WindSpeedGustMPH,Humidity,HourlyPrecipIn,Conditions,Clouds,dailyrainin,SoftwareType,DateUTC
2013-03-24 00:00:00,44.2,27.7,29.81,NNE,16,5.0,7.0,52,0.00,CLR,,0.00,WeatherDisplay:10.37,2013-03-24 04:00:00,
2013-03-24 00:10:00,44.6,27.1,29.81,NNE,12,5.0,7.0,50,0.00,CLR,,0.00,WeatherDisplay:10.37,2013-03-24 04:10:00,
2013-03-24 00:20:00,44.6,27.1,29.81,NNE,22,5.0,9.0,50,0.00,CLR,,0.00,WeatherDisplay:10.37,2013-03-24 04:20:00,
2013-03-24 00:30:00,44.7,26.7,29.81,NNE,18,5.0,9.0,49,0.00,CLR,,0.00,WeatherDisplay:10.37,2013-03-24 04:30:00,
2013-03-24 00:40:00,45.0,25.4,29.78,NNE,13,3.0,8.0,46,0.00,CLR,,0.00,WeatherDisplay:10.37,2013-03-24 04:40:00,
2013-03-24 00:50:00,45.0,25.4,29.78,North,11,5.0,10.0,46,0.00,CLR,,0.00,WeatherDisplay:10.37,2013-03-24 04:50:00,
2013-03-24 01:00:00,45.0,25.9,29.78,NNE,23,7.0,10.0,47,0.00,CLR,,0.00,WeatherDisplay:10.37,2013-03-24 05:00:00,
2013-03-24 01:10:00,45.1,26.1,29.78,NNE,30,3.0,7.0,47,0.00,CLR,,0.00,WeatherDisplay:10.37,2013-03-24 05:10:00,
2013-03-24 01:20:00,45.1,26.1,29.78,NNE,22,5.0,6.0,47,0.00,CLR,,0.00,WeatherDisplay:10.37,2013-03-24 05:20:00,
2013-03-24 01:30:00,45.1,26.6,29.78,NE,35,3.0,8.0,48,0.00,CLR,,0.00,WeatherDisplay:10.37,2013-03-24 05:30:00,
2013-03-24 01:40:00,45.0,26.4,29.78,NNE,16,5.0,8.0,48,0.00,CLR,,0.00,WeatherDisplay:10.37,2013-03-24 05:40:00,
2013-03-24 01:50:00,45.0,26.4,29.78,NNE,17,5.0,9.0,48,0.00,CLR,,0.00,WeatherDisplay:10.37,2013-03-24 05:50:00,
2013-03-24 02:00:00,44.8,26.3,29.78,NNE,12,3.0,5.0,48,0.00,CLR,,0.00,WeatherDisplay:10.37,2013-03-24 06:00:00,
2013-03-24 02:10:00,44.8,26.3,29.81,NNW,338,1.0,3.0,48,0.00,CLR,,0.00,WeatherDisplay:10.37,2013-03-24 06:10:00,
2013-03-24 02:20:00,44.8,26.3,29.84,WNW,303,0.0,1.0,48,0.00,CLR,,0.00,WeatherDisplay:10.37,2013-03-24 06:20:00,
2013-03-24 02:30:00,44.1,26.1,29.84,NE,55,1.0,2.0,49,0.00,CLR,,0.00,WeatherDisplay:10.37,2013-03-24 06:30:00,
2013-03-24 02:40:00,43.7,25.8,29.81,West,269,0.0,1.0,49,0.00,CLR,,0.00,WeatherDisplay:10.37,2013-03-24 06:40:00,
2013-03-24 02:50:00,43.5,26.1,29.81,NNW,333,0.0,2.0,50,0.00,CLR,,0.00,WeatherDisplay:10.37,2013-03-24 06:50:00,
2013-03-24 03:00:00,43.5,26.1,29.81,North,354,1.0,4.0,50,0.00,CLR,,0.00,WeatherDisplay:10.37,2013-03-24 07:00:00,
2013-03-24 03:10:00,43.5,26.1,29.81,ENE,77,1.0,5.0,50,0.00,CLR,,0.00,WeatherDisplay:10.37,2013-03-24 07:10:00,
2013-03-24 03:20:00,43.5,26.1,29.78,NNE,32,1.0,4.0,50,0.00,CLR,,0.00,WeatherDisplay:10.37,2013-03-24 07:20:00,
2013-03-24 03:30:00,44.2,26.3,29.78,NE,49,0.0,5.0,49,0.00,CLR,,0.00,WeatherDisplay:10.37,2013-03-24 07:30:00,
2013-03-24 03:40:00,44.2,27.2,29.78,NE,36,2.0,3.0,51,0.00,CLR,,0.00,WeatherDisplay:10.37,2013-03-24 07:40:00,
2013-03-24 03:50:00,43.9,26.9,29.75,NNE,25,2.0,5.0,51,0.00,CLR,,0.00,WeatherDisplay:10.37,2013-03-24 07:50:00,
2013-03-24 04:00:00,43.9,26.9,29.75,NE,48,5.0,8.0,51,0.00,CLR,,0.00,WeatherDisplay:10.37,2013-03-24 08:00:00,
2013-03-24 04:10:00,44.4,26.9,29.75,NE,55,3.0,6.0,50,0.00,CLR,,0.00,WeatherDisplay:10.37,2013-03-24 08:10:00,
2013-03-24 04:20:00,44.3,27.8,29.75,NE,37,3.0,6.0,52,0.00,CLR,,0.00,WeatherDisplay:10.37,2013-03-24 08:20:00,
2013-03-24 04:30:00,44.2,27.7,29.75,NNE,22,3.0,8.0,52,0.00,CLR,,0.00,WeatherDisplay:10.37,2013-03-24 08:30:00,
2013-03-24 04:40:00,44.1,28.0,29.75,ENE,57,2.0,7.0,53,0.00,CLR,,0.00,WeatherDisplay:10.37,2013-03-24 08:40:00,
2013-03-24 04:50:00,43.3,29.1,29.72,NE,39,2.0,5.0,57,0.00,CLR,,0.00,WeatherDisplay:10.37,2013-03-24 08:50:00,
2013-03-24 05:00:00,43.3,29.1,29.72,ENE,65,2.0,5.0,57,0.00,CLR,,0.00,WeatherDisplay:10.37,2013-03-24 09:00:00,
2013-03-24 05:10:00,43.3,29.1,29.72,NE,55,2.0,3.0,57,0.00,CLR,,0.00,WeatherDisplay:10.37,2013-03-24 09:10:00,
2013-03-24 05:20:00,43.3,29.1,29.69,NE,47,2.0,4.0,57,0.00,CLR,,0.00,WeatherDisplay:10.37,2013-03-24 09:20:00,
2013-03-24 05:30:00,43.3,29.1,29.69,NNE,26,2.0,6.0,57,0.00,CLR,,0.00,WeatherDisplay:10.37,2013-03-24 09:30:00,
2013-03-24 05:40:00,43.3,29.1,29.72,NNE,17,2.0,5.0,57,0.00,CLR,,0.00,WeatherDisplay:10.37,2013-03-24 09:40:00,
2013-03-24 05:50:00,42.4,34.4,29.69,NNE,15,1.0,3.0,73,0.00,CLR,,0.00,WeatherDisplay:10.37,2013-03-24 09:50:00,
2013-03-24 06:00:00,42.3,34.2,29.69,North,359,0.0,3.0,73,0.00,CLR,,0.00,WeatherDisplay:10.37,2013-03-24 10:00:00,
2013-03-24 06:10:00,42.1,34.0,29.72,NNW,330,0.0,2.0,73,0.00,CLR,,0.00,WeatherDisplay:10.37,2013-03-24 10:10:00,
2013-03-24 06:20:00,41.9,35.2,29.69,NE,38,0.0,2.0,77,0.00,CLR,,0.00,WeatherDisplay:10.37,2013-03-24 10:20:00,
2013-03-24 06:30:00,41.5,37.4,29.69,North,7,3.0,6.0,85,0.00,CLR,,0.00,WeatherDisplay:10.37,2013-03-24 10:30:00,
2013-03-24 06:40:00,41.7,39.0,29.69,North,7,3.0,6.0,90,0.00,CLR,,0.00,WeatherDisplay:10.37,2013-03-24 10:40:00,
2013-03-24 06:50:00,41.7,39.6,29.66,NNE,21,3.0,7.0,92,0.00,CLR,,0.00,WeatherDisplay:10.37,2013-03-24 10:50:00,
2013-03-24 07:00:00,41.7,39.8,29.66,North,360,2.0,6.0,93,0.00,CLR,,0.00,WeatherDisplay:10.37,2013-03-24 11:00:00,
2013-03-24 07:10:00,41.7,39.6,29.66,NNE,26,3.0,6.0,92,0.00,CLR,,0.00,WeatherDisplay:10.37,2013-03-24 11:10:00,
2013-03-24 07:20:00,41.7,40.1,29.66,NNE,21,3.0,7.0,94,0.00,CLR,,0.00,WeatherDisplay:10.37,2013-03-24 11:20:00,
2013-03-24 07:30:00,41.7,40.1,29.66,NNE,20,3.0,8.0,94,0.00,CLR,,0.00,WeatherDisplay:10.37,2013-03-24 11:30:00,
2013-03-24 07:40:00,41.7,40.1,29.66,NNE,29,3.0,7.0,94,0.00,CLR,,0.00,WeatherDisplay:10.37,2013-03-24 11:40:00,
2013-03-24 07:50:00,41.7,39.8,29.66,NNE,30,6.0,8.0,93,0.00,CLR,,0.00,WeatherDisplay:10.37,2013-03-24 11:50:00,
2013-03-24 08:00:00,41.7,39.8,29.66,NE,46,3.0,7.0,93,0.00,CLR,,0.00,WeatherDisplay:10.37,2013-03-24 12:00:00,
2013-03-24 08:10:00,41.5,39.7,29.69,NNE,29,3.0,8.0,93,0.00,CLR,,0.00,WeatherDisplay:10.37,2013-03-24 12:10:00,
2013-03-24 08:20:00,41.5,39.9,29.66,NE,37,6.0,8.0,94,0.00,CLR,,0.00,WeatherDisplay:10.37,2013-03-24 12:20:00,
2013-03-24 08:30:00,41.4,39.8,29.66,NNE,30,6.0,10.0,94,0.00,CLR,,0.00,WeatherDisplay:10.37,2013-03-24 12:30:00,
2013-03-24 08:40:00,41.4,39.8,29.66,NE,41,8.0,10.0,94,0.00,CLR,,0.00,WeatherDisplay:10.37,2013-03-24 12:40:00,
2013-03-24 08:50:00,41.2,39.6,29.66,NNE,32,6.0,10.0,94,0.00,CLR,,0.00,WeatherDisplay:10.37,2013-03-24 12:50:00,
2013-03-24 09:00:00,41.2,39.6,29.66,NNE,31,5.0,10.0,94,0.00,CLR,,0.00,WeatherDisplay:10.37,2013-03-24 13:00:00,
2013-03-24 09:10:00,41.2,39.6,29.66,NNE,22,5.0,10.0,94,0.00,CLR,,0.00,WeatherDisplay:10.37,2013-03-24 13:10:00,
2013-03-24 09:20:00,41.2,39.9,29.66,NNE,25,5.0,8.0,95,0.00,CLR,,0.00,WeatherDisplay:10.37,2013-03-24 13:20:00,
2013-03-24 09:30:00,41.0,39.4,29.66,NE,39,5.0,8.0,94,0.00,CLR,,0.00,WeatherDisplay:10.37,2013-03-24 13:30:00,
2013-03-24 09:40:00,41.0,39.4,29.66,NNE,31,7.0,9.0,94,0.00,CLR,,0.00,WeatherDisplay:10.37,2013-03-24 13:40:00,
2013-03-24 09:50:00,41.0,39.1,29.63,NNE,32,6.0,9.0,93,0.00,CLR,,0.00,WeatherDisplay:10.37,2013-03-24 13:50:00,
2013-03-24 10:00:00,41.0,39.4,29.63,NE,34,7.0,9.0,94,0.00,CLR,,0.00,WeatherDisplay:10.37,2013-03-24 14:00:00,
2013-03-24 10:10:00,41.2,39.6,29.63,NNE,33,7.0,13.0,94,0.00,CLR,,0.00,WeatherDisplay:10.37,2013-03-24 14:10:00,
2013-03-24 10:20:00,41.3,39.5,29.63,NE,36,7.0,10.0,93,0.00,CLR,,0.00,WeatherDisplay:10.37,2013-03-24 14:20:00,
2013-03-24 10:30:00,41.7,39.8,29.63,North,1,7.0,11.0,93,0.00,CLR,,0.00,WeatherDisplay:10.37,2013-03-24 14:30:00,
2013-03-24 10:40:00,41.6,38.6,29.63,NNE,27,8.0,14.0,89,0.00,CLR,,0.00,WeatherDisplay:10.37,2013-03-24 14:40:00,
2013-03-24 10:50:00,41.5,38.5,29.63,NE,35,5.0,9.0,89,0.00,CLR,,0.00,WeatherDisplay:10.37,2013-03-24 14:50:00,
2013-03-24 11:00:00,41.9,38.6,29.63,NNE,26,7.0,12.0,88,0.00,CLR,,0.00,WeatherDisplay:10.37,2013-03-24 15:00:00,
2013-03-24 11:10:00,41.9,38.3,29.63,NE,35,5.0,10.0,87,0.00,CLR,,0.00,WeatherDisplay:10.37,2013-03-24 15:10:00,
2013-03-24 11:20:00,42.3,38.7,29.60,NNE,32,7.0,10.0,87,0.00,CLR,,0.00,WeatherDisplay:10.37,2013-03-24 15:20:00,
2013-03-24 11:30:00,42.4,39.1,29.60,NE,38,6.0,13.0,88,0.00,CLR,,0.00,WeatherDisplay:10.37,2013-03-24 15:30:00,
2013-03-24 11:40:00,42.7,38.2,29.60,NNE,25,6.0,12.0,84,0.00,CLR,,0.00,WeatherDisplay:10.37,2013-03-24 15:40:00,
2013-03-24 11:50:00,42.8,38.3,29.60,NE,38,6.0,9.0,84,0.00,CLR,,0.00,WeatherDisplay:10.37,2013-03-24 15:50:00,
2013-03-24 12:00:00,43.2,39.0,29.60,NE,39,5.0,8.0,85,0.00,CLR,,0.00,WeatherDisplay:10.37,2013-03-24 16:00:00,
2013-03-24 12:10:00,43.7,39.5,29.60,NNE,18,3.0,9.0,85,0.00,CLR,,0.00,WeatherDisplay:10.37,2013-03-24 16:10:00,
2013-03-24 12:20:00,43.3,37.9,29.60,NE,40,6.0,10.0,81,0.00,CLR,,0.00,WeatherDisplay:10.37,2013-03-24 16:20:00,
2013-03-24 12:30:00,43.5,38.7,29.60,NE,38,5.0,9.0,83,0.00,CLR,,0.00,WeatherDisplay:10.37,2013-03-24 16:30:00,
2013-03-24 12:40:00,43.8,39.3,29.60,NNE,30,6.0,9.0,84,0.00,CLR,,0.00,WeatherDisplay:10.37,2013-03-24 16:40:00,
2013-03-24 12:50:00,43.7,38.6,29.60,NNE,27,3.0,9.0,82,0.00,CLR,,0.00,WeatherDisplay:10.37,2013-03-24 16:50:00,
2013-03-24 13:00:00,43.5,38.7,29.60,NNE,16,3.0,9.0,83,0.00,CLR,,0.00,WeatherDisplay:10.37,2013-03-24 17:00:00,
2013-03-24 13:10:00,43.2,38.7,29.60,North,8,3.0,6.0,84,0.00,CLR,,0.00,WeatherDisplay:10.37,2013-03-24 17:10:00,
2013-03-24 13:20:00,42.6,38.1,29.60,NNE,26,2.0,6.0,84,0.00,CLR,,0.00,WeatherDisplay:10.37,2013-03-24 17:20:00,
2013-03-24 13:30:00,42.1,38.5,29.60,NE,41,3.0,7.0,87,0.00,CLR,,0.00,WeatherDisplay:10.37,2013-03-24 17:30:00,
2013-03-24 13:40:00,41.9,38.6,29.57,NNE,32,3.0,6.0,88,0.00,CLR,,0.00,WeatherDisplay:10.37,2013-03-24 17:40:00,
2013-03-24 13:50:00,41.9,39.5,29.57,NE,53,5.0,7.0,91,0.00,CLR,,0.00,WeatherDisplay:10.37,2013-03-24 17:50:00,
2013-03-24 14:00:00,42.3,40.4,29.57,NE,48,3.0,6.0,93,0.00,CLR,,0.00,WeatherDisplay:10.37,2013-03-24 18:00:00,
2013-03-24 14:10:00,42.4,40.6,29.60,NE,41,3.0,7.0,93,0.00,CLR,,0.00,WeatherDisplay:10.37,2013-03-24 18:10:00,
2013-03-24 14:20:00,43.2,41.8,29.57,NE,43,6.0,8.0,95,0.00,CLR,,0.00,WeatherDisplay:10.37,2013-03-24 18:20:00,
2013-03-24 14:30:00,43.9,42.0,29.57,NE,55,3.0,7.0,93,0.00,CLR,,0.00,WeatherDisplay:10.37,2013-03-24 18:30:00,
2013-03-24 14:40:00,44.3,41.6,29.57,NE,39,5.0,8.0,90,0.00,CLR,,0.00,WeatherDisplay:10.37,2013-03-24 18:40:00,
2013-03-24 14:50:00,45.3,42.3,29.57,NE,44,5.0,9.0,89,0.00,CLR,,0.00,WeatherDisplay:10.37,2013-03-24 18:50:00,
2013-03-24 15:00:00,45.8,41.0,29.57,NE,37,5.0,9.0,83,0.00,CLR,,0.00,WeatherDisplay:10.37,2013-03-24 19:00:00,
2013-03-24 15:10:00,46.5,39.7,29.57,NNE,25,5.0,8.0,77,0.00,CLR,,0.00,WeatherDisplay:10.37,2013-03-24 19:10:00,
2013-03-24 15:20:00,46.5,38.3,29.57,NNE,28,5.0,7.0,73,0.00,CLR,,0.00,WeatherDisplay:10.37,2013-03-24 19:20:00,
2013-03-24 15:30:00,46.8,38.6,29.57,NNE,15,5.0,6.0,73,0.00,CLR,,0.00,WeatherDisplay:10.37,2013-03-24 19:30:00,
2013-03-24 15:40:00,48.0,38.0,29.57,NE,44,5.0,8.0,68,0.00,CLR,,0.00,WeatherDisplay:10.37,2013-03-24 19:40:00,
2013-03-24 15:50:00,48.9,38.8,29.57,NE,36,2.0,8.0,68,0.00,CLR,,0.00,WeatherDisplay:10.37,2013-03-24 19:50:00,
2013-03-24 16:00:00,49.6,37.1,29.57,NNE,28,6.0,9.0,62,0.00,CLR,,0.00,WeatherDisplay:10.37,2013-03-24 20:00:00,
2013-03-24 16:10:00,49.3,35.5,29.57,NE,47,6.0,9.0,59,0.00,CLR,,0.00,WeatherDisplay:10.37,2013-03-24 20:10:00,
2013-03-24 16:20:00,49.1,35.8,29.54,NE,38,6.0,9.0,60,0.00,CLR,,0.00,WeatherDisplay:10.37,2013-03-24 20:20:00,
2013-03-24 16:30:00,49.5,37.8,29.54,NE,49,3.0,8.0,64,0.00,CLR,,0.00,WeatherDisplay:10.37,2013-03-24 20:30:00,
2013-03-24 16:40:00,49.1,36.6,29.54,NE,40,3.0,6.0,62,0.00,CLR,,0.00,WeatherDisplay:10.37,2013-03-24 20:40:00,
2013-03-24 16:50:00,49.1,35.8,29.54,NNE,25,5.0,8.0,60,0.00,CLR,,0.00,WeatherDisplay:10.37,2013-03-24 20:50:00,
2013-03-24 17:00:00,48.4,34.7,29.54,NNE,25,5.0,7.0,59,0.00,CLR,,0.00,WeatherDisplay:10.37,2013-03-24 21:00:00,
2013-03-24 17:10:00,48.2,35.0,29.51,NNE,23,6.0,8.0,60,0.00,CLR,,0.00,WeatherDisplay:10.37,2013-03-24 21:10:00,
2013-03-24 17:20:00,48.4,34.3,29.51,NNE,21,5.0,8.0,58,0.00,CLR,,0.00,WeatherDisplay:10.37,2013-03-24 21:20:00,
2013-03-24 17:30:00,48.4,34.3,29.51,NNE,23,5.0,11.0,58,0.00,CLR,,0.00,WeatherDisplay:10.37,2013-03-24 21:30:00,
2013-03-24 17:40:00,48.4,34.3,29.48,NNE,32,6.0,9.0,58,0.00,CLR,,0.00,WeatherDisplay:10.37,2013-03-24 21:40:00,
2013-03-24 17:50:00,48.2,33.7,29.48,NNE,33,6.0,8.0,57,0.00,CLR,,0.00,WeatherDisplay:10.37,2013-03-24 21:50:00,
2013-03-24 18:00:00,48.2,34.5,29.48,NNE,30,3.0,8.0,59,0.00,CLR,,0.00,WeatherDisplay:10.37,2013-03-24 22:00:00,
2013-03-24 18:10:00,47.8,34.2,29.48,NNE,25,5.0,8.0,59,0.00,CLR,,0.00,WeatherDisplay:10.37,2013-03-24 22:10:00,
2013-03-24 18:20:00,47.5,33.4,29.48,NNE,14,5.0,7.0,58,0.00,CLR,,0.00,WeatherDisplay:10.37,2013-03-24 22:20:00,
2013-03-24 18:30:00,47.3,34.9,29.48,NNE,29,2.0,8.0,62,0.00,CLR,,0.00,WeatherDisplay:10.37,2013-03-24 22:30:00,
2013-03-24 18:40:00,46.5,33.4,29.48,NNE,17,5.0,7.0,60,0.00,CLR,,0.00,WeatherDisplay:10.37,2013-03-24 22:40:00,
2013-03-24 18:50:00,46.0,33.7,29.48,NNE,33,5.0,10.0,62,0.00,CLR,,0.00,WeatherDisplay:10.37,2013-03-24 22:50:00,
2013-03-24 19:00:00,45.9,33.6,29.48,NE,46,5.0,8.0,62,0.00,CLR,,0.00,WeatherDisplay:10.37,2013-03-24 23:00:00,
2013-03-24 19:10:00,45.8,33.5,29.48,NE,48,6.0,8.0,62,0.00,CLR,,0.00,WeatherDisplay:10.37,2013-03-24 23:10:00,
2013-03-24 19:20:00,45.5,33.6,29.48,NE,36,6.0,9.0,63,0.00,CLR,,0.00,WeatherDisplay:10.37,2013-03-24 23:20:00,
2013-03-24 19:30:00,45.5,33.6,29.48,NE,44,6.0,10.0,63,0.00,CLR,,0.00,WeatherDisplay:10.37,2013-03-24 23:30:00,
2013-03-24 19:40:00,45.3,33.9,29.48,NE,42,5.0,8.0,64,0.00,CLR,,0.00,WeatherDisplay:10.37,2013-03-24 23:40:00,
2013-03-24 19:50:00,45.5,34.0,29.45,NE,51,3.0,7.0,64,0.00,CLR,,0.00,WeatherDisplay:10.37,2013-03-24 23:50:00,
2013-03-24 20:00:00,45.7,34.2,29.45,ENE,59,5.0,7.0,64,0.00,CLR,,0.00,WeatherDisplay:10.37,2013-03-25 00:00:00,
2013-03-24 20:10:00,45.9,34.4,29.45,ENE,64,2.0,7.0,64,0.00,CLR,,0.00,WeatherDisplay:10.37,2013-03-25 00:10:00,
2013-03-24 20:20:00,45.9,34.8,29.45,East,80,1.0,5.0,65,0.00,CLR,,0.00,WeatherDisplay:10.37,2013-03-25 00:20:00,
2013-03-24 20:30:00,45.7,35.3,29.45,ENE,60,3.0,6.0,67,0.00,CLR,,0.00,WeatherDisplay:10.37,2013-03-25 00:30:00,
2013-03-24 20:40:00,45.1,35.9,29.45,ENE,69,2.0,6.0,70,0.00,CLR,,0.00,WeatherDisplay:10.37,2013-03-25 00:40:00,
2013-03-24 20:50:00,44.4,37.3,29.45,NE,51,3.0,6.0,76,0.00,CLR,,0.00,WeatherDisplay:10.37,2013-03-25 00:50:00,
2013-03-24 21:00:00,43.9,37.1,29.45,NE,51,2.0,5.0,77,0.00,CLR,,0.00,WeatherDisplay:10.37,2013-03-25 01:00:00,
2013-03-24 21:10:00,43.5,37.8,29.45,ESE,107,1.0,5.0,80,0.00,CLR,,0.00,WeatherDisplay:10.37,2013-03-25 01:10:00,
2013-03-24 21:20:00,43.4,37.6,29.48,WSW,256,1.0,3.0,80,0.00,CLR,,0.00,WeatherDisplay:10.37,2013-03-25 01:20:00,
2013-03-24 21:30:00,43.3,37.9,29.48,SSW,194,1.0,2.0,81,0.00,CLR,,0.00,WeatherDisplay:10.37,2013-03-25 01:30:00,
2013-03-24 21:40:00,43.3,38.2,29.48,WNW,285,1.0,3.0,82,0.00,CLR,,0.00,WeatherDisplay:10.37,2013-03-25 01:40:00,
2013-03-24 21:50:00,43.3,39.1,29.51,SW,217,1.0,6.0,85,0.00,CLR,,0.00,WeatherDisplay:10.37,2013-03-25 01:50:00,
2013-03-24 22:00:00,42.9,40.1,29.51,West,268,3.0,9.0,90,0.00,CLR,,0.00,WeatherDisplay:10.37,2013-03-25 02:00:00,
2013-03-24 22:10:00,42.1,38.5,29.54,WSW,250,5.0,15.0,87,0.00,CLR,,0.00,WeatherDisplay:10.37,2013-03-25 02:10:00,
2013-03-24 22:20:00,41.9,38.6,29.54,WSW,247,3.0,7.0,88,0.00,CLR,,0.00,WeatherDisplay:10.37,2013-03-25 02:20:00,
2013-03-24 22:30:00,41.7,38.4,29.54,SW,236,2.0,7.0,88,0.00,CLR,,0.00,WeatherDisplay:10.37,2013-03-25 02:30:00,
2013-03-24 22:40:00,41.7,39.0,29.54,SW,216,2.0,6.0,90,0.00,CLR,,0.00,WeatherDisplay:10.37,2013-03-25 02:40:00,
2013-03-24 22:50:00,41.7,39.0,29.54,SSW,204,0.0,3.0,90,0.00,CLR,,0.00,WeatherDisplay:10.37,2013-03-25 02:50:00,
2013-03-24 23:00:00,41.7,38.7,29.54,WSW,255,1.0,2.0,89,0.00,CLR,,0.00,WeatherDisplay:10.37,2013-03-25 03:00:00,
2013-03-24 23:10:00,41.7,38.7,29.54,SSE,165,1.0,2.0,89,0.00,CLR,,0.00,WeatherDisplay:10.37,2013-03-25 03:10:00,
2013-03-24 23:20:00,41.7,38.4,29.54,SSE,147,0.0,2.0,88,0.00,CLR,,0.00,WeatherDisplay:10.37,2013-03-25 03:20:00,
2013-03-24 23:30:00,41.7,38.4,29.54,SSE,166,1.0,2.0,88,0.00,CLR,,0.00,WeatherDisplay:10.37,2013-03-25 03:30:00,
2013-03-24 23:40:00,41.7,39.0,29.51,NNE,17,0.0,2.0,90,0.00,CLR,,0.00,WeatherDisplay:10.37,2013-03-25 03:40:00,
2013-03-24 23:50:00,41.7,39.0,29.51,SSW,195,1.0,3.0,90,0.00,CLR,,0.00,WeatherDisplay:10.37,2013-03-25 03:50:00,